STARLINK-32852, 62824

Orbit data source: Space-Track

STARLINK-32852, 62824 is a payload satellite owned by SpaceX/Seattle (US) in LEO that was launched on Fri, 24 Jan 2025 UTC via an FALCON 9 launch vehicle from the Air Force Western Test Range (AFWTR). Payloads include a variety of satellites, spacecraft, and rockets equipped with specific instruments for various scientific and technological missions. These include communications satellites like Starlink; space stations such as the ISS; scientific satellites like the Hubble; Earth observation satellites from companies like Planet Labs, Umbra, and HawkEye 360; GPS; miniature CubeSats for education and research; and military/defense satellites.

Loading next visibility...
STARLINK-32852 details
Identifier
62824, 2025-018U
Orbit
LEO
Last TLE update9 hours ago
Origin
Flag of USSpaceX/Seattle (US)
ManufacturerSpaceX/Seattle
MissionOperational spacecraft
Bus & MotorSTARLINK V2M, Unknown motor
Mass730 kg wet, ~700 kg dry
Launch date (UTC)
2025-01-24 (3 weeks ago)
Launch vehicle
FALCON 9
Launch site
Air Force Western Test Range (AFWTR)
Object type
Payload
Rocket body
Debris
Shape & HBRUnknown
Radar Cross SectionLarge (>1 m²)

Expand to show TLE details & history

TLE from 9 hours ago
0 STARLINK-32852
1 62824U 25018U   25047.16668981 -.01595132  00000-0 -25313-1 0  9994
2 62824  53.1590 312.4799 0000712  78.4334 293.8592 15.55651861  4646
Epoch: 2025-02-16T04:00Z
Definitive object data (Epoch: 2025-02-16T04:00:01.999Z)
Latitude9.7853°
Longitude113.45038°
Altitude400.23 km
Speed7.673 km/s
True Right ascension21h 19m 26s
True Declination9° 43' 29"
Sunlit
Object was in daylight at TLE epoch
Visualization TLE readout
Latitude-46.36651°
Longitude52.87968°
Altitude420.223 km
Speed7.659 km/s
Apparent Right ascension22h 52m 20s
Apparent Declination-77° 31' 55"
Sunlit
Object is in daylight
Visualization observer readout
Local Sidereal Time15:42:14
Azimuth163.769° S
Elevation-42.562°
Doppler factor1
Orbital elements
Apogee altitude401 km
Perigee altitude400.035 km
Semi-major axis6,778.655 km
Eccentricity0.0000712
Inclination53.159°
RAAN312.4799°
Arg. of periapsis78.4334°
True anomaly293.85174°
Mean anomaly293.8592°
Eccentric anomaly293.85547°
Mean motion3.88891 °/min
BSTAR-0.025313
Orbital period92.57 mins
Loading maneuver chart data...
Loading historical data...
Loading historical data...
Loading historical data...
Loading historical data...
Loading historical data...
Loading historical data...
Loading historical data...

STARLINK-32852 Visibility forecast

Observer location: undefined°, undefined

Span
Click to sort rows by Start time (UTC) header in descending order
Start Az.
Max El. time (UTC)
Max El. Az.
Max El.
End time (UTC)
End Az.
4 mins2025-02-16 19:32:38.200Z180.301° SSW2025-02-16 19:34:38.200Z130.473° SE23.17°2025-02-16 19:36:38.200Z81.936° E
4 mins2025-02-16 21:09:38.200Z285.15° WNW2025-02-16 21:10:38.200Z316.41° NNW27.134°2025-02-16 21:13:38.200Z31.281° NE
4 mins2025-02-17 02:01:38.200Z346.256° N2025-02-17 02:03:38.200Z39.123° NE21.759°2025-02-17 02:05:38.200Z81.23° E
4 mins2025-02-17 03:38:38.200Z273.285° WNW2025-02-17 03:39:38.200Z236.547° WSW31.629°2025-02-17 03:42:38.200Z157.571° S
|